This demonstration page uses our WeatherBlox Daily Observations layout. Learn more.

Left ArrowRight Arrow

44.8408, -93.29828

Hourly Observations for February 11, 2019

Temp ( °F °C ) Dew Point ( °F °C ) Humidity (%) Winds ( mph kmh ) Pressure ( in mb ) Visibility ( mi km ) Precip ( " mm )
12:53 am 00:53 Cloudy 17 -8.3 14 -10 88 88 ENE 6 9 30.29 1026 7 11 0.00 0.03
1:53 am 01:53 Cloudy 17 -8.3 14 -10 88 88 E 7 11 30.27 1025 7 11 0.00 0.00
2:09 am 02:09 Cloudy 17 -8.3 15 -9.4 92 92 E 6 9 30.30 1026 8 13 0.00 0.00
2:45 am 02:45 Cloudy 17 -8.3 15 -9.4 92 92 E 6 9 30.30 1026 8 13 0.00 0.00
2:53 am 02:53 Cloudy 17 -8.3 15 -9.4 92 92 E 6 9 30.27 1025 7 11 0.00 0.00
3:00 am 03:00 Cloudy 17 -8.3 15 -9.4 92 92 ENE 6 9 30.30 1026 8 13 0.00 0.00
3:53 am 03:53 Cloudy 17 -8.3 15 -9.4 92 92 ENE 3 6 30.26 1025 8 13 0.00 0.00
4:46 am 04:46 Cloudy 18 -7.8 16 -8.9 92 92 ESE 6 9 30.28 1025 8 13 0.00 0.00
4:53 am 04:53 Cloudy 18 -7.8 16 -8.9 92 92 SE 5 7 30.25 1025 8 13 0.00 0.00
5:23 am 05:23 Cloudy with Light Snow 18 -7.8 16 -8.9 92 92 E 7 11 30.28 1025 7 11 0.00 0.03
5:53 am 05:53 Cloudy with Light Snow 18 -7.8 16 -8.9 92 92 ENE 5 7 30.25 1025 7 11 0.00 0.03
6:53 am 06:53 Cloudy with Light Snow 19 -7.2 17 -8.3 92 92 E 7 11 30.24 1024 7 11 0.00 0.03
7:43 am 07:43 Cloudy 19 -7.2 17 -8.3 92 92 E 8 13 30.25 1024 8 13 0.00 0.03
7:53 am 07:53 Cloudy 19 -7.2 17 -8.3 92 92 E 9 15 30.23 1024 8 13 0.00 0.03
8:20 am 08:20 Cloudy 19 -7.2 17 -8.3 92 92 E 8 13 30.25 1024 8 13 0.00 0.00
8:35 am 08:35 Cloudy 19 -7.2 17 -8.3 92 92 E 8 13 30.24 1024 8 13 0.00 0.00
8:43 am 08:43 Cloudy 20 -6.7 17 -8.3 89 89 ESE 9 15 30.24 1024 8 13 0.00 0.00
8:53 am 08:53 Cloudy 20 -6.7 17 -8.3 89 89 E 9 15 30.22 1023 8 13 0.00 0.00
9:53 am 09:53 Cloudy 20 -6.7 18 -7.8 92 92 E 10 17 30.21 1023 8 13 0.00 0.00
10:53 am 10:53 Cloudy 21 -6.1 18 -7.8 88 88 ESE 10 17 30.20 1023 9 14 0.00 0.00
11:01 am 11:01 Cloudy 22 -5.6 18 -7.8 85 85 ESE 14 22 30.23 1024 9 14 0.00 0.00
11:53 am 11:53 Cloudy 22 -5.6 19 -7.2 89 89 E 13 20 30.18 1022 10 16 0.00 0.00
12:53 pm 12:53 Cloudy 23 -5 19 -7.2 85 85 E 12 19 30.16 1021 10 16 0.00 0.00
1:53 pm 13:53 Cloudy 24 -4.4 19 -7.2 81 81 E 17 28 30.14 1021 10 16 0.00 0.00
2:53 pm 14:53 Cloudy 25 -3.9 19 -7.2 78 78 E 15 24 30.12 1020 8 13 0.00 0.00
3:53 pm 15:53 Cloudy 25 -3.9 19 -7.2 78 78 E 15 24 30.14 1021 10 16 0.00 0.00
4:53 pm 16:53 Cloudy with Light Snow 24 -4.4 19 -7.2 81 81 ESE 15 24 30.14 1021 10 16 0.00 0.03
5:53 pm 17:53 Cloudy with Light Snow 24 -4.4 19 -7.2 81 81 ESE 16 26 30.12 1020 9 14 0.00 0.03
6:53 pm 18:53 Cloudy with Light Snow 24 -4.4 19 -7.2 81 81 ENE 10 17 30.11 1020 9 14 0.00 0.03
7:43 pm 19:43 Cloudy 23 -5 20 -6.7 88 88 ENE 12 19 30.11 1020 10 16 0.00 0.03
7:53 pm 19:53 Cloudy 23 -5 19 -7.2 85 85 E 13 20 30.09 1019 10 16 0.00 0.03
8:34 pm 20:34 Cloudy 23 -5 20 -6.7 88 88 E 12 19 30.10 1019 10 16 0.00 0.00
8:42 pm 20:42 Cloudy 23 -5 20 -6.7 88 88 ENE 10 17 30.09 1019 10 16 0.00 0.00
8:53 pm 20:53 Cloudy 23 -5 20 -6.7 88 88 ENE 12 19 30.07 1018 10 16 0.00 0.00
9:53 pm 21:53 Cloudy with Light Snow 23 -5 20 -6.7 88 88 E 12 19 30.05 1018 8 13 0.00 0.03
10:53 pm 22:53 Cloudy with Light Snow 23 -5 21 -6.1 92 92 E 12 19 30.03 1017 6 10 0.00 0.03
11:26 pm 23:26 Cloudy with Light Snow 23 -5 22 -5.6 96 96 ENE 8 13 30.03 1017 2 3 0.01 0.25
11:36 pm 23:36 Cloudy with Light Snow 23 -5 22 -5.6 96 96 ENE 8 13 30.03 1017 2 3 0.02 0.51
11:43 pm 23:43 Cloudy with Light Snow 23 -5 22 -5.6 96 96 ENE 9 15 30.03 1017 3 4 0.02 0.51
11:53 pm 23:53 Cloudy with Light Snow 23 -5 22 -5.6 96 96 ENE 8 13 30.01 1016 2 3 0.03 0.76
11:58 pm 23:58 Cloudy with Light Snow 23 -5 22 -5.6 96 96 NE 7 11 30.03 1017 2 3 0.00 0.03

Powered by AerisWeather